Weather History for KIZG - November, 2012

Change the Weather History Date:

Sunday, November 25, 2012

  Actual Average Record
Temperature  
Mean Temperature 30 °F -  
Max Temperature 34 °F 40 °F 60 °F (2014)
Min Temperature 26 °F 22 °F 0 °F (2000)
Degree Days  
Heating Degree Days 35    
Moisture  
Dew Point 10 °F    
Average Humidity 44    
Maximum Humidity 54    
Minimum Humidity 34    
Precipitation  
Precipitation 0.00 in - - ()
Sea Level Pressure  
Sea Level Pressure 29.67 in    
Wind  
Wind Speed 11 mph (WNW)    
Max Wind Speed 17 mph    
Max Gust Speed 29 mph    
Visibility 10 miles    
Events Snow    
Averages and records for this station are not official NWS values.
T = Trace of Precipitation, MM = Missing Value Source: NWS Daily Summary

Daily Weather History Graph

Daily Weather History Graph

Search for Another Location

Airport or City:

Trip Planner

Search our weather history database for the weather conditions in past years. The results will help you decide how hot, cold, wet, or windy it might be!

Date:

Astronomy

Nov. 25, 2012 Rise Set
Actual Time 6:52 AM EST 4:09 PM EST
Civil Twilight 6:19 AM EST 4:41 PM EST
Nautical Twilight 5:44 AM EST 5:17 PM EST
Astronomical Twilight 5:09 AM EST 5:51 PM EST
Moon 2:28 PM EST (11/25) 3:58 AM EST (11/25)
Length of Visible Light 10h 21m
Length of Day
9h 17m
Waxing Gibbous, 93% of the Moon is Illuminated
Nov 25
Waxing Gibbous
Nov 28
Full
Dec 6
Last Quarter
Dec 13
New
Dec 20
First Quarter

Hourly Weather History & Observations

Time (EST) Temp. Windchill Dew Point Humidity Pressure Visibility Wind Dir Wind Speed Gust Speed Precip Events Conditions
12:54 AM 30.0 °F 18.7 °F 14.0 °F 51% 29.55 in 10.0 mi WNW 16.1 mph 27.6 mph 0.00 in Snow Light Snow
1:54 AM 30.0 °F 20.5 °F 12.9 °F 49% 29.58 in 10.0 mi WNW 11.5 mph 23.0 mph 0.00 in   Overcast
2:54 AM 28.9 °F 16.9 °F 14.0 °F 54% 29.59 in 9.0 mi WNW 17.3 mph 28.8 mph 0.00 in Snow Light Snow
3:54 AM 28.9 °F 19.2 °F 12.0 °F 49% 29.60 in 10.0 mi West 11.5 mph 20.7 mph 0.00 in   Overcast
4:54 AM 28.0 °F 20.0 °F 12.0 °F 51% 29.62 in 10.0 mi WNW 8.1 mph 20.7 mph 0.00 in   Overcast
5:54 AM 28.0 °F 24.2 °F 12.9 °F 53% 29.63 in 10.0 mi Variable 3.5 mph - N/A   Overcast
6:54 AM 27.0 °F 19.5 °F 10.9 °F 51% 29.65 in 10.0 mi Variable 6.9 mph - N/A   Mostly Cloudy
7:54 AM 28.0 °F - 10.9 °F 49% 29.65 in 10.0 mi Calm Calm - N/A   Mostly Cloudy
8:54 AM 30.0 °F 19.5 °F 10.9 °F 45% 29.65 in 10.0 mi WNW 13.8 mph 21.9 mph N/A   Partly Cloudy
9:54 AM 32.0 °F 23.0 °F 12.0 °F 44% 29.64 in 10.0 mi West 11.5 mph 20.7 mph N/A   Clear
10:54 AM 32.0 °F 24.2 °F 10.9 °F 42% 29.65 in 10.0 mi West 9.2 mph 19.6 mph N/A   Clear
11:54 AM 32.0 °F 23.6 °F 10.0 °F 40% 29.64 in 10.0 mi WNW 10.4 mph 18.4 mph N/A   Clear
12:54 PM 33.1 °F 23.9 °F 8.1 °F 35% 29.64 in 10.0 mi West 12.7 mph 23.0 mph N/A   Clear
1:54 PM 34.0 °F 26.0 °F 8.1 °F 34% 29.64 in 10.0 mi WSW 10.4 mph 19.6 mph N/A   Clear
2:54 PM 33.1 °F 24.9 °F 8.1 °F 35% 29.66 in 10.0 mi West 10.4 mph 19.6 mph N/A   Clear
3:54 PM 30.9 °F 23.5 °F 8.1 °F 38% 29.66 in 10.0 mi WNW 8.1 mph - N/A   Clear
4:54 PM 30.0 °F 21.7 °F 7.0 °F 38% 29.68 in 10.0 mi West 9.2 mph - N/A   Clear
5:54 PM 28.9 °F 21.1 °F 7.0 °F 40% 29.70 in 10.0 mi WNW 8.1 mph - N/A   Clear
6:54 PM 28.9 °F 21.9 °F 6.1 °F 38% 29.72 in 10.0 mi WNW 6.9 mph - N/A   Clear
7:54 PM 28.0 °F 21.7 °F 6.1 °F 39% 29.74 in 10.0 mi West 5.8 mph - N/A   Clear
8:54 PM 27.0 °F 19.5 °F 6.1 °F 41% 29.74 in 10.0 mi WNW 6.9 mph - N/A   Clear
9:54 PM 28.0 °F 20.0 °F 7.0 °F 41% 29.77 in 10.0 mi WNW 8.1 mph - N/A   Clear
10:54 PM 26.1 °F 19.4 °F 8.1 °F 47% 29.78 in 10.0 mi NW 5.8 mph - N/A   Clear
11:54 PM 26.1 °F 20.5 °F 9.0 °F 49% 29.80 in 10.0 mi West 4.6 mph - N/A   Clear